Location: Madingley
(52.2167°N, 0.0500°E)
Time: 05:37:26
(UTC+00:00)

SL-16 R/B - Pass Details

Date: 15 May 2026
Orbit: 838 x 849 km, 71.0° (Epoch: 6 June)

Event Time Altitude Azimuth Distance (km) Brightness Sun altitude
Rises 22:23:33 0° 327° (NNW) 3,423 7.1 -15.9°
Reaches altitude 10° 22:26:44 10° 344° (NNW) 2,486 6.0 -16.1°
Maximum altitude 22:30:50 20° 31° (NNE) 1,890 4.5 -16.4°
Drops below altitude 10° 22:34:54 10° 76° (ENE) 2,481 4.6 -16.6°
Sets 22:38:04 0° 94° (E) 3,413 5.1 -16.7°
